{"data":{"norad_id":64152,"epoch":"2026-05-25T03:41:56.698080Z","epoch_age_seconds":75817,"freshness":"FRESH","line1":"1 64152U 25112G   26145.15412845  .00039777  00000+0  27399-2 0  9991","line2":"2 64152  97.4504 196.5168 0000938 102.6864 257.4468 15.05726763 54818","mean_motion":15.05726763,"eccentricity":9.38e-5,"inclination_deg":97.4504,"raan_deg":196.5168,"arg_perigee_deg":102.6864,"mean_anomaly_deg":257.4468,"bstar":0.0027399,"rev_number":5481,"period_min":95.634881134141,"perigee_km":548.62590983908,"apogee_km":549.92549246181,"semimajor_km":6927.4127011504,"source":"CELESTRAK","updated_at":"2026-05-25T13:38:20.303242Z"}}